Ask Your Question

perolofl's profile - karma

perolofl's karma change log

15 0 How to Convert synchronous generators into asynchronous generators? ( 2019-03-08 10:48:15 -0500 )

0 -15 How to Convert synchronous generators into asynchronous generators? ( 2019-03-08 10:48:08 -0500 )

15 0 How to Convert synchronous generators into asynchronous generators? ( 2019-03-08 10:48:08 -0500 )

0 -15 How to Convert synchronous generators into asynchronous generators? ( 2019-03-08 10:48:08 -0500 )

15 0 How to Convert synchronous generators into asynchronous generators? ( 2019-03-08 10:48:07 -0500 )

0 -15 How to Convert synchronous generators into asynchronous generators? ( 2019-03-08 10:48:07 -0500 )

15 0 How to Convert synchronous generators into asynchronous generators? ( 2019-03-08 10:48:03 -0500 )

0 -15 How to Convert synchronous generators into asynchronous generators? ( 2019-03-08 10:48:02 -0500 )

15 0 How to Convert synchronous generators into asynchronous generators? ( 2019-03-08 10:48:02 -0500 )

0 -15 How to Convert synchronous generators into asynchronous generators? ( 2019-03-08 10:48:01 -0500 )

15 0 How to Convert synchronous generators into asynchronous generators? ( 2019-03-08 10:48:00 -0500 )

10 0 configure or write my own user model of power system stabilizer in PSS/E ( 2019-02-27 02:22:26 -0500 )

10 0 How to print the sld file neatly, with flow arrows and such ? ( 2019-02-22 10:32:09 -0500 )

15 0 How to print the sld file neatly, with flow arrows and such ? ( 2019-02-22 10:32:07 -0500 )

10 0 Python API to Terminate Dynamic Simulation ( 2019-02-21 17:02:34 -0500 )

15 0 I couldnt find what this functions are for in mode 5 in user model programming ( 2019-02-15 10:38:20 -0500 )

15 0 pause psspy.run based on the status of a monitored variable (to simulate an SPS) ( 2019-02-06 16:35:28 -0500 )

0 -15 Complex generation: get the Real par and Imagine part ( 2019-01-24 02:34:47 -0500 )

15 0 Complex generation: get the Real par and Imagine part ( 2019-01-24 02:34:43 -0500 )

0 -15 Complex generation: get the Real par and Imagine part ( 2019-01-24 02:34:41 -0500 )

10 0 Complex generation: get the Real par and Imagine part ( 2019-01-24 02:29:04 -0500 )

15 0 Complex generation: get the Real par and Imagine part ( 2019-01-24 02:29:02 -0500 )

10 0 Print a python value in psse progress output ( 2019-01-24 01:30:31 -0500 )

15 0 Print a python value in psse progress output ( 2019-01-24 01:30:23 -0500 )

10 0 Is it possible to change generator and load values in dynamic simulation? ( 2019-01-23 00:51:28 -0500 )

10 0 Monitor branch current in dynamic study ( 2018-12-13 13:09:37 -0500 )

10 0 Plotting a CON Parameter ( 2018-12-05 15:04:40 -0500 )

0 -2 Retrieving Dynamic Generator Outputs ( 2018-11-27 02:27:22 -0500 )

15 0 Why there are so many ratings? ( 2018-11-22 07:07:25 -0500 )

15 0 How to pass only certain elements of an array in function ( 2018-11-22 06:33:36 -0500 )

10 0 How to pass only certain elements of an array in function ( 2018-11-22 06:33:34 -0500 )

15 0 Error: No plant data at this bus ( 2018-11-14 11:01:51 -0500 )

15 0 How to create a case from Python ? ( 2018-11-14 11:00:01 -0500 )

10 0 Primary response generation change ( 2018-11-01 11:10:08 -0500 )

15 0 Adding primary reserve limits to dynamic model using HYGOV ( 2018-11-01 10:11:37 -0500 )

10 0 Adding primary reserve limits to dynamic model using HYGOV ( 2018-11-01 09:49:51 -0500 )

10 0 Why there are so many ratings? ( 2018-11-01 08:13:47 -0500 )

15 0 Primary response generation change ( 2018-11-01 08:07:41 -0500 )

15 0 Arrary allocation failed in DYRE ( 2018-10-27 10:46:39 -0500 )

15 0 Having difficulty getting a int data from powerflow file ( 2018-10-24 22:42:58 -0500 )

10 0 Having difficulty getting a int data from powerflow file ( 2018-10-24 22:42:57 -0500 )

15 0 How to change voltage angle in dynamic simulation ( 2018-10-23 09:33:56 -0500 )

15 0 How to add multiple seq files to a project ( 2018-10-19 00:55:34 -0500 )

10 0 How to add multiple seq files to a project ( 2018-10-19 00:55:33 -0500 )

10 0 Confusion with the language of some files ( 2018-10-08 12:01:24 -0500 )

15 0 User Defined Model ( 2018-10-04 10:54:09 -0500 )

0 -15 User Defined Model ( 2018-10-04 10:54:07 -0500 )

15 0 User Defined Model ( 2018-10-04 10:53:57 -0500 )

15 0 Explanation about CONEC and CONET subroutines ( 2018-09-26 05:43:06 -0500 )

15 0 Insert buses from a raw file ( 2018-09-22 20:53:59 -0500 )

0 -15 Insert buses from a raw file ( 2018-09-22 20:53:57 -0500 )

15 0 Insert buses from a raw file ( 2018-09-22 20:53:56 -0500 )

15 0 Confusion with tie branches ( 2018-09-19 12:10:11 -0500 )

15 0 How to plot the whole system's frequency response in a single curve in PSSE? ( 2018-09-18 04:28:48 -0500 )

0 -15 How to plot the whole system's frequency response in a single curve in PSSE? ( 2018-09-18 04:12:43 -0500 )

15 0 How to plot the whole system's frequency response in a single curve in PSSE? ( 2018-09-18 04:10:46 -0500 )

15 0 Request, Online Tap Changer Example ( 2018-09-14 01:29:21 -0500 )

10 0 Request, Online Tap Changer Example ( 2018-09-14 01:29:17 -0500 )

10 0 Shunt Modelling Inside PSSE ( 2018-09-14 00:40:47 -0500 )

15 0 Shunt Modelling Inside PSSE ( 2018-09-14 00:40:46 -0500 )

10 0 Pass arguments to IDV with runrspnsfile ( 2018-09-14 00:32:07 -0500 )

15 0 Pass arguments to IDV with runrspnsfile ( 2018-09-13 15:45:40 -0500 )

10 0 Pass arguments to IDV with runrspnsfile ( 2018-09-13 15:45:39 -0500 )

15 0 Dynamic Model .dyr for Induction Machine ( 2018-08-21 00:04:06 -0500 )

15 0 complex value to excel ---use excelpy ( 2018-04-28 09:01:43 -0500 )

15 0 Generating reduced equivalence network ( 2018-04-04 19:43:00 -0500 )

2 0 VSC_HVDC and CSC_HVDC link with PSS/E ( 2018-03-26 19:37:05 -0500 )

15 0 How to retrieve specific load data from psse with python ( 2018-03-05 07:25:39 -0500 )

15 0 export excel files to psse v33 ( 2018-03-02 08:31:05 -0500 )

15 0 retrieve line length ( 2018-02-23 00:09:07 -0500 )

10 0 TwoWindingTransformer parameters into CIM ( 2018-02-20 09:07:54 -0500 )

15 0 TwoWindingTransformer parameters into CIM ( 2018-02-20 09:07:52 -0500 )

15 0 How to "run automation file" through a python instruction (API)? ( 2018-02-14 13:13:14 -0500 )

15 0 invalid shunt status ( 2018-02-03 15:16:04 -0500 )

10 0 invalid shunt status ( 2018-02-03 15:15:59 -0500 )

10 0 Reactive power generation ( 2018-01-24 13:14:17 -0500 )

15 0 negative load code ( 2018-01-24 13:14:10 -0500 )

10 0 negative load code ( 2018-01-24 13:14:08 -0500 )

15 0 Reactive power generation ( 2018-01-24 13:13:50 -0500 )

0 -2 VSC_HVDC and CSC_HVDC link with PSS/E ( 2018-01-14 05:33:50 -0500 )

10 0 blown up power flow code ( 2017-12-22 01:30:24 -0500 )

15 0 blown up power flow code ( 2017-12-20 09:34:51 -0500 )

15 0 "System model requires too many VARS" when using large amount of CMLDBLU2 load models ( 2017-11-02 14:53:49 -0500 )

0 -10 Equivalent two-phase to ground fault admittances at Transmission nodes ( 2017-10-10 19:43:05 -0500 )

15 0 Equivalent two-phase to ground fault admittances at Transmission nodes ( 2017-10-10 19:42:58 -0500 )

10 0 Equivalent two-phase to ground fault admittances at Transmission nodes ( 2017-10-10 19:42:57 -0500 )

15 0 Negative sequence admittance (or impedance) ( 2017-10-10 19:41:47 -0500 )

15 0 How to convert (pu) speed deviation to (rad/s) in the plot data?? ( 2017-09-19 08:35:36 -0500 )

15 0 parameters of governor model ( 2017-09-19 07:14:56 -0500 )

15 0 Error: Messages for api DIST_SPCB_FAULT_2 ( 2017-08-25 21:53:45 -0500 )

15 0 How to get MW and MVAR on psspy.aloadcplx and How to kill excel on Task Manager ( 2017-07-18 21:12:23 -0500 )

15 0 how to convert sld ver.33 to ver.32 ( 2017-06-27 03:37:22 -0500 )

15 0 Dynamic simulation initialized out of limit(s) ( 2017-06-02 17:54:00 -0500 )

15 0 How does psspy.machine_chng_2 work? ( 2017-05-24 04:34:58 -0500 )

10 0 find var number for user model ( 2017-02-24 13:54:20 -0500 )

0 -10 find var number for user model ( 2017-02-24 13:54:18 -0500 )

10 0 find var number for user model ( 2017-02-23 16:33:38 -0500 )

15 0 is the TMLC or LineProp module an add-on to PSSe and should be paid for? ( 2017-01-23 15:17:45 -0500 )

15 0 How can I read the frequency? ( 2016-12-20 18:47:18 -0500 )

0 -15 How can I read the frequency? ( 2016-12-20 18:47:17 -0500 )

15 0 How can I read the frequency? ( 2016-12-20 18:47:08 -0500 )

15 0 Mvar Annotation on diagram view ( 2016-10-21 02:31:29 -0500 )

0 -15 Mvar Annotation on diagram view ( 2016-10-21 02:31:26 -0500 )

15 0 Mvar Annotation on diagram view ( 2016-10-21 02:31:25 -0500 )

0 -2 find var number for user model ( 2016-10-04 04:52:23 -0500 )

0 -2 find var number for user model ( 2016-10-04 04:52:07 -0500 )

0 -2 How do I find all in-service branches connected to out of service buses? ( 2016-10-04 04:51:08 -0500 )

0 -2 What is the API for tripping and reconnecting loads ( 2016-10-04 04:49:49 -0500 )

0 -2 How do I find an available bus number? ( 2016-10-04 04:48:33 -0500 )

0 -2 How do I find an available bus number? ( 2016-10-04 04:47:58 -0500 )

10 0 What is the API for tripping and reconnecting loads ( 2016-10-04 04:16:11 -0500 )

15 0 How to trip one winding in a 3-winding transformer? ( 2016-10-03 09:58:46 -0500 )

10 0 What is the API for tripping and reconnecting loads ( 2016-09-29 08:33:14 -0500 )

15 0 test case for starting of CIMTR3 as induction machine ( 2016-09-26 09:35:51 -0500 )

10 0 error using immod_status for induction machine ( 2016-09-23 15:34:40 -0500 )